Location: Czu?�w
(50.1404°N, 18.9919°E)
Time: 02:44:37
(UTC+00:00)

NOAA 11 - Pass Details

Date: 27 October 2020
Orbit: 833 x 850 km, 98.4° (Epoch: 24 November)

Event Time Altitude Azimuth Distance (km) Brightness Sun altitude
Rises 16:07:14 0° 155° (SSE) 3,384 7.2 -6.8°
Reaches altitude 10° 16:09:36 10° 153° (SSE) 2,451 6.5 -7.1°
Maximum altitude 16:14:59 68° 71° (ENE) 901 4.2 -8.0°
Drops below altitude 10° 16:20:23 10° 350° (N) 2,459 6.6 -8.8°
Sets 16:22:46 0° 348° (NNW) 3,396 7.4 -9.2°
